Hourly Data Report for October 14, 2016

All times are specified in Local Standard Time (LST). Add 1 hour to adjust for Daylight Saving Time where and when it is observed.

ARVIAT A
NUNAVUT

61°05'38.000" N
94°04'18.000" W
10.40 m
2300427
71174
YEK

Download Data

Hourly Data (October 2016)
Hourly Data Report for October 14, 2016
Temp Definition
°C
Dew Point Temp Definition
°C
Rel Hum Definition
%
Wind Dir Definition
10's deg

Wind Spd Definition
km/h
Visibility Definition
km
Stn Press Definition
kPa
Hmdx Definition


Wind Chill Definition


Weather Definition


TIME
00:00 Legend Double Dagger -5.4 -6.5 92 29 26 16.1 100.44   -13 LegendNANA
01:00 Legend Double Dagger -5.1 -5.6 96 30 26 9.7 100.47   -13 Fog
02:00 Legend Double Dagger -5.5 -6.5 93 32 21 16.1 100.53   -12 LegendNANA
03:00 Legend Double Dagger -6.7 -7.1 97 31 18 16.1 100.58   -13 LegendNANA
04:00 Legend Double Dagger -6.9 -7.4 96 31 22 16.1 100.64   -14 LegendNANA
05:00 Legend Double Dagger -6.7 -7.5 94 31 32 16.1 100.67   -15 LegendNANA
06:00 Legend Double Dagger -6.2 -7.0 94 32 30 16.1 100.73   -15 Snow
07:00 Legend Double Dagger -6.3 -7.0 95 31 32 16.1 100.75   -15 LegendNANA
08:00 Legend Double Dagger -6.2 -6.9 95 32 30 16.1 100.79   -15 LegendNANA
09:00 Legend Double Dagger -5.9 -6.6 95 32 34 16.1 100.81   -15 LegendNANA
10:00 Legend Double Dagger -5.4 -6.5 92 33 22 16.1 100.87   -12 LegendNANA
11:00 Legend Double Dagger -4.7 -6.5 87 33 24 16.1 100.93   -12 LegendNANA
12:00 Legend Double Dagger -4.2 -6.0 88 34 22 16.1 100.98   -11 LegendNANA
13:00 Legend Double Dagger -4.1 -5.7 89 34 24 14.5 101.00   -11 LegendNANA
14:00 Legend Double Dagger -4.1 -5.8 88 33 18 16.1 101.03   -10 LegendNANA
15:00 Legend Double Dagger -3.6 -5.2 89 35 22 16.1 101.04   -10 LegendNANA
16:00 Legend Double Dagger -4.2 -6.2 86 34 17 16.1 101.08   -10 LegendNANA
17:00 Legend Double Dagger -4.1 -6.0 87 34 18 16.1 101.08   -10 LegendNANA
18:00 Legend Double Dagger -5.1 -5.8 95 34 18 16.1 101.14   -11 LegendNANA
19:00 Legend Double Dagger -5.8 -6.1 98 32 13 16.1 101.19   -11 LegendNANA
20:00 Legend Double Dagger -6.4 -6.5 99 34 21 14.5 101.19   -13 LegendNANA
21:00 Legend Double Dagger -7.5 -7.6 99 34 21 16.1 101.20   -15 LegendNANA
22:00 Legend Double Dagger -6.4 -6.5 99 35 13 16.1 101.19   -12 LegendNANA
23:00 Legend Double Dagger -6.0 -6.3 98 35 15 16.1 101.18   -12 LegendNANA

Notes on Data Quality.

Legend

  • E = Estimated
  • M = Missing
  • NA = Not Available
  • ‡ = Partner data that is not subject to review by the National Climate Archives
Date modified: